AOE单目标轨道API文档

    更新时间:2025-02-10 15:30:00

    1. 授权参数

    Authorization: Bearer {API TOKEN}

    其中 {API TOKEN} 是你在控制台创建的API令牌。该 token 在后续的 API 请求中用于身份验证。

    去控制台创建令牌

    2. 轨道数据

    GET https://spacemapper.cn/cgi/orbital/aoe

    请求头部

    参数名 说明
    Authorization Bearer YOUR_API_TOKEN

    请求参数

    参数名 类型 说明
    channel * (必填) string 轨道库来源:KY / INTERNATIONAL
    type * (必填) string 格式: TLE / 2LE / JSON / OMMXML
    catId int 编目ID
    date string 目标日期,例如:2025-03-05
    days int 天数,例如1,2,3,4,5,注意可能存在空值

    响应示例(默认)

    COSMOS 2533
    1 43867U          25064.87500000  .00000000  00000-0  10000-7 0 00000
    2 43867 000.0233 108.4979 0000072 177.1925 263.1406 01.00273394000000

    响应示例(2LE)

    1 43867U          25064.87500000  .00000000  00000-0  10000-7 0 00000
    2 43867 000.0233 108.4979 0000072 177.1925 263.1406 01.00273394000000

    响应示例 (JSON)

    {
     "OBJECT_NAME": "EUTE 36D",
     "OBJECT_ID": "2000-000",
     "EPOCH": "2025-03-06T03:00:00+0800",
     "MEAN_MOTION": 1.002717,
     "ECCENTRICITY": 0.0000398,
     "INCLINATION": 0.0195,
     "RA_OF_ASC": 140.1303,
     "ARG_OF_PER": 163.395,
     "MEAN_ANOMALY": 181.1003,
     "EPHEMERIS_TYPE": 0,
     "CLASSIFICATION": "U",
     "NORAD_CAT_ID": 59346,
     "ELEMENT_SET_NO": 0,
     "REV_AT_EPOCH": 0,
     "BSTAR": 0,
     "MEAN_MOTION_DOT": 0,
     "MEAN_MOTION_DOT_DOT": 0,
     "SEMIMAJOR_AXIS": 42164.756,
     "APOGEE": 35788.3,
     "PERIGEE": 35788.3,
     "PERIOD": 1436.0981,
     "LINE1": "1 59346U          25064.79166667  .00000000  00000-0  10000-7 0 00000",
     "LINE2": "2 59346 000.0195 140.1303 0000398 163.3950 181.1003 01.00271749000000"
    },

    响应示例 (OMMXML)?

    <?xml version="1.0" encoding="UTF-8" standalone="no"?>
    <ndm xmlns:xsi="http://www.w3.org/2001/XMLSchema-instance" xsi:noNamespaceSchemaLocation="https://sanaregistry.org/r/ndmxml_unqualified/ndmxml-3.0.0-master-3.0.xsd">
      <omm id="CCSDS_OMM_VERS" version="3.0">
        <header>
          <CCSDS_OMM_VERS>3.0</CCSDS_OMM_VERS>
          <CREATION_DATE>2026-05-20T04:25:49+0000</CREATION_DATE>
          <ORIGINATOR>AOE Integration Group</ORIGINATOR>
        </header>
        <body>
          <segment>
            <metadata>
              <OBJECT_NAME>COSMOS 2385</OBJECT_NAME>
              <OBJECT_ID>2001-058B</OBJECT_ID>
              <CENTER_NAME>EARTH</CENTER_NAME>
              <REF_FRAME>TEME</REF_FRAME>
              <TIME_SYSTEM>UTC</TIME_SYSTEM>
              <MEAN_ELEMENT_THEORY>SGP4</MEAN_ELEMENT_THEORY>
            </metadata>
            <data>
              <meanElements>
                <EPOCH>2026-05-19T23:19:22+0000</EPOCH>
                <MEAN_MOTION>12.6056430</MEAN_MOTION>
                <ECCENTRICITY>0.0005023</ECCENTRICITY>
                <INCLINATION>82.5387</INCLINATION>
                <RA_OF_ASC_NODE>237.8867</RA_OF_ASC_NODE>
                <ARG_OF_PERICENTER>301.8530</ARG_OF_PERICENTER>
                <MEAN_ANOMALY>181.2773</MEAN_ANOMALY>
              </meanElements>
              <tleParameters>
                <NORAD_CAT_ID>27056</NORAD_CAT_ID>
                <REV_AT_EPOCH>12222</REV_AT_EPOCH>
                <BSTAR>0.0003984</BSTAR>
                <MEAN_MOTION_DOT>0.0000000</MEAN_MOTION_DOT>
                <MEAN_MOTION_DDOT>0.0000000</MEAN_MOTION_DDOT>
              </tleParameters>
            </data>
          </segment>
        </body>
      </omm>
    </ndm>

    3. 轨道数据使用案例

    3.1 按目标查询最新

    请求参数

    参数名 类型 说明
    channel * (必填) string 轨道库来源:KY / INTERNATIONAL
    type * (必填) string 格式: TLE / 2LE / JSON / OMMXML
    catId int 编目ID

    请求案例

    https://spacemapper.cn/cgi/orbital/aoe?channel=INTERNATIONAL&type=tle&catId=25544

    3.2 按目标日期查询

    请求参数

    参数名 类型 说明
    channel * (必填) string 轨道库来源:KY / INTERNATIONAL
    type * (必填) string 格式: TLE / 2LE / JSON / OMMXML
    catId int 编目ID
    date string 目标日期,例如:2025-03-05

    请求案例

    https://spacemapper.cn/cgi/orbital/aoe?channel=INTERNATIONAL&type=json&catId=25544&date=2025-03-05

    3.3 按天数查询

    请求参数

    参数名 类型 说明
    channel * (必填) string 轨道库来源:KY / INTERNATIONAL
    type * (必填) string 格式: TLE / 2LE / JSON / OMMXML
    catId int 编目ID
    days int 天数,例如1,2,3,4,5,注意可能存在空值

    请求案例

    https://spacemapper.cn/cgi/orbital/aoe?channel=INTERNATIONAL&type=json&catId=25544&days=5

    3.4 查询目标指定条数的数据

    请求参数

    参数名 类型 说明
    channel * (必填) string 轨道库来源:KY / INTERNATIONAL
    type * (必填) string 格式: TLE / 2LE / JSON / OMMXML
    catId int 编目ID
    limit int 条数,例如1,2,3,4,5,返回历史指定条数轨道数据

    请求案例

    https://spacemapper.cn/cgi/orbital/aoe?channel=INTERNATIONAL&type=json&catId=25544&limit=2
    7×24

    7×24小时

    全天候数据服务保障

    数据

    海量数据

    覆盖全球5万+空间目标

    算法

    专业算法

    航天级轨道计算引擎

    仿真

    高精度仿真

    数字孪生空间环境构建

    安全

    安全可靠

    多层级数据安全防护